Williston, ND

10:05 PM CDT on October 20, 2019 (GMT -0500)
Sloulin International

Weather History for KISN - August, 2019

Change the Weather History Date:

Monday, August 26, 2019

  Actual Average Record
Temperature  
Mean Temperature 65 °F 66 °F  
Max Temperature 74 °F 81 °F 99 °F (1901)
Min Temperature 56 °F 51 °F 33 °F (1914)
Degree Days  
Heating Degree Days 0 2  
Month to date heating degree days 19 33  
Since 1 June heating degree days 104 177  
Since 1 July heating degree days 34 57  
Cooling Degree Days 0 4  
Month to date cooling degree days 132 151  
Year to date cooling degree days 376 414  
Since 1 June cooling degree days 370 401  
Growing Degree Days 15 (Base 50)    
Moisture  
Dew Point 49 °F    
Average Humidity 60    
Maximum Humidity 86    
Minimum Humidity 33    
Precipitation  
Precipitation 0.02 in 0.05 in 1.19 in (1903)
Month to date precipitation 1.96 1.23  
Year to date precipitation 11.62 10.90  
Sea Level Pressure  
Sea Level Pressure 29.88 in    
Wind  
Wind Speed 15 mph (WNW)    
Max Wind Speed 28 mph    
Max Gust Speed 44 mph    
Visibility 10 miles    
Events      
T = Trace of Precipitation, MM = Missing Value Source: NWS Daily Summary

Daily Weather History Graph

Daily Weather History Graph

Search for Another Location

Airport or City:

Astronomy

Aug. 26, 2019 Rise Set
Actual Time 7:03 AM CDT 8:47 PM CDT
Civil Twilight 6:30 AM CDT 9:20 PM CDT
Nautical Twilight 5:50 AM CDT 10:01 PM CDT
Astronomical Twilight 5:05 AM CDT 10:45 PM CDT
Moon 2:14 AM CDT (8/26) 6:31 PM CDT (8/26)
Length of Visible Light 14h 49m
Length of Day
13h 44m
Waning Crescent, 19% of the Moon is Illuminated
Aug 26
Waning Crescent
Aug 30
New
Sep 5
First Quarter
Sep 13
Full
Sep 21
Last Quarter

Hourly Weather History & Observations

Time (CDT) Temp. Dew Point Humidity Pressure Visibility Wind Dir Wind Speed Gust Speed Precip Events Conditions
12:52 AM 59.0 °F 53.1 °F 81% 29.81 in 10.0 mi NNW 8.1 mph - N/A   Scattered Clouds
1:52 AM 61.0 °F 53.1 °F 75% 29.81 in 10.0 mi WNW 5.8 mph - N/A   Mostly Cloudy
2:52 AM 60.1 °F 53.1 °F 78% 29.81 in 10.0 mi West 10.4 mph - N/A   Overcast
3:52 AM 59.0 °F 52.0 °F 78% 29.82 in 10.0 mi WNW 12.7 mph - N/A   Mostly Cloudy
4:52 AM 59.0 °F 52.0 °F 78% 29.84 in 10.0 mi WNW 11.5 mph - N/A   Overcast
5:52 AM 57.0 °F 52.0 °F 83% 29.85 in 10.0 mi West 11.5 mph - N/A   Scattered Clouds
6:52 AM 57.0 °F 52.0 °F 83% 29.85 in 10.0 mi West 9.2 mph - N/A   Scattered Clouds
7:52 AM 59.0 °F 52.0 °F 78% 29.86 in 10.0 mi WNW 16.1 mph - N/A   Overcast
8:52 AM 57.9 °F 54.0 °F 87% 29.89 in 10.0 mi West 10.4 mph - 0.02 in   Scattered Clouds
9:52 AM 62.1 °F 53.1 °F 72% 29.90 in 10.0 mi WNW 16.1 mph - N/A   Clear
10:52 AM 69.1 °F 52.0 °F 54% 29.90 in 10.0 mi WNW 13.8 mph 21.9 mph N/A   Clear
11:52 AM 71.1 °F 48.9 °F 45% 29.90 in 10.0 mi NW 16.1 mph 26.5 mph N/A   Partly Cloudy
12:52 PM 71.1 °F 46.9 °F 42% 29.90 in 10.0 mi NW 18.4 mph 32.2 mph N/A   Partly Cloudy
1:52 PM 71.1 °F 46.9 °F 42% 29.88 in 10.0 mi WNW 20.7 mph 31.1 mph N/A   Partly Cloudy
2:52 PM 69.1 °F 48.0 °F 47% 29.89 in 10.0 mi West 23.0 mph 35.7 mph N/A   Mostly Cloudy
3:52 PM 72.0 °F 46.9 °F 41% 29.88 in 10.0 mi West 21.9 mph 33.4 mph N/A   Partly Cloudy
4:52 PM 64.0 °F 48.0 °F 56% 29.90 in 10.0 mi West 16.1 mph - N/A   Mostly Cloudy
5:52 PM 68.0 °F 50.0 °F 52% 29.89 in 10.0 mi West 16.1 mph - N/A   Clear
6:52 PM 68.0 °F 50.0 °F 52% 29.88 in 10.0 mi West 16.1 mph 25.3 mph N/A   Clear
7:52 PM 70.0 °F 39.0 °F 32% 29.89 in 10.0 mi WNW 16.1 mph 32.2 mph N/A   Scattered Clouds
8:52 PM 63.0 °F 39.0 °F 41% 29.91 in 10.0 mi WNW 10.4 mph - N/A   Clear
9:52 PM 60.1 °F 39.0 °F 46% 29.94 in 10.0 mi WNW 13.8 mph - N/A   Clear
10:52 PM 57.9 °F 42.1 °F 56% 29.93 in 10.0 mi West 12.7 mph - N/A   Clear
11:52 PM 57.0 °F 39.9 °F 53% 29.94 in 10.0 mi WNW 12.7 mph - N/A   Clear